Вернуться в каталог

SKYSAT C5

АктивенНаукаSSO
NORAD 41772·PAYLOAD·🇺🇸 United States

Запущен Sep 16, 2016 с Guiana Space Centre

Loading…

Ближайшие Пролёты (ближайшие 24 часа)

TLE

СвежийSource: CelesTrak SupGP

Эпоха: Sep 14, 2026, 14:49 UTC

1 41772C 16058C   26257.61777778  .00000342  00000+0  10372-4 0  2575
2 41772  97.0396 294.1849 0001334  24.0886 117.4384 15.34203259    16

Отслеживайте SKYSAT C5 в реальном времени с AllMySat

Download on the App Store